Моторово

Россия / Омская область     56°31′32″N   71°10′28″E
темп.,
°C
ветер,
м/с
пор.,
м/с
влажн.,
%
обл.,
%
осадки,
мм/ч
давл.,
гПа
погр.,
м
8 марта, пн
пн800:00−7вюв51195100 5.0 998381
03:00+1ююз81697100 1.4 9951138
06:00−10зсз51193100 2.1 998529
09:00−12зсз51294100 0.1 1001477
12:00−10з51092100 0.1 1005551
15:00−10з5989100 0.1 1008765
18:00−11зюз5988100 0.1 1010715
21:00−13юз41192100 0.0 1012417
9 марта, вт
вт900:00−13юз41293100 0.1 1013555
03:00−11ююз51193100 0.4 1011620
06:00−10ююз61392100 0.6 1011650
09:00−10юз61392100 0.1 1011616
12:00−8ююз61193100 0.3 1011541
15:00−7ююз61294100 0.4 1010717
18:00−6юз71490100 0.9 1008957
21:00−7юз71591100 0.3 1007927
10 марта, ср
ср1000:00−6юз71492100 0.4 1009804
03:00−9з41093100 0.1 1011441
06:00−13з2596100 0.1 1013105
09:00−14зсз1196100 0.0 101221
12:00−9в2289100 0.0 1011242
15:00−8всв3492100 0.0 1008331
18:00−8всв2594100 0.0 1005394
21:00−8св3796100 0.6 1003307
11 марта, чт
чт1100:00−9ссв2396100 1.1 1001103
03:00−10св1197100 0.6 100023
06:00−10вюв1297100 1.0 100023
09:00−9ю2596100 0.6 1001299
12:00−11юз61090100 0.9 1002651
15:00−11юз6988100 0.1 1003870
18:00−13юз5988100 0.3 1004893
21:00−16ююз31094100 0.1 1005359
12 марта, пт
пт1200:00−19ююз3897100 0.1 1006233
03:00−21ююз379994 0.1 1006163
06:00−20юз279997 0.1 1008206
09:00−21з4996100 0.1 1010379
12:00−20з4894100 0.1 1013496
15:00−19з4793100 0.1 1015619
18:00−19з4894100 0.3 1016693
21:00−20з3896100 0.1 1019488